Location: Newark
(51.3318°N, 0.0053°E)
Time: 06:31:52
(UTC+00:00)

BlueWalker 3 - Pass Details

Date: 05 December 2022
Orbit: 499 x 517 km, 53.2° (Epoch: 28 January)

Event Time Altitude Azimuth Distance (km) Brightness Sun altitude
Rises 18:14:55 0° 287° (WNW) 2,632 6.7 -21.0°
Reaches altitude 10° 18:17:08 10° 287° (WNW) 1,740 5.6 -21.4°
Maximum altitude 18:21:04 86° 202° (SSW) 517 1.8 -22.0°
Enters shadow 18:21:09 85° 158° (SSE) 518 1.8 -22.0°
